Temp_Advection
nan nan nan nan nan nan nan nan nan nan nan nan nan nan nan nan nan nan nan nan nan nan nan nan nan nan nan nan nan nan nan nan nan nan nan nan nan nan nan nan nan nan nan nan nan nan nan nan nan nan nan nan nan nan nan nan nan nan nan nan nan nan nan nan nan nan nan nan nan nan nan nan nan nan
nan -1 -1 -1 -2 -2 -2 -1 -1 -1 -1 -1 -1 -1 -1 -1 -1 -1 -1 -1 -1 -1 -1 -1 -1 -2 -1 -1 -0 0 1 1 1 1 0 -1 -2 -2 -1 -0 -0 0 1 1 0 -0 -1 -1 -1 -0 -0 0 0 1 1 1 -0 -0 -0 -0 -0 0 0 0 -0 -0 -0 0 1 1 0 -0 -0 nan
nan -0 -0 -1 -2 -2 -2 -1 -1 -1 -1 -1 -1 -1 -1 -1 -1 -1 -1 -1 -2 -1 -1 -1 -1 -1 -2 -2 -1 0 1 1 1 1 1 0 -1 -2 -1 -1 -0 -0 0 1 1 0 -1 -1 -0 0 0 0 0 0 1 1 1 1 0 0 0 0 0 0 -0 -0 -0 -0 -0 -0 -0 0 -0 nan
nan 0 -0 -1 -1 -1 -1 -1 -1 -1 -1 -1 -1 -1 -1 -1 -1 -1 -1 -1 -2 -2 -1 -1 -1 -1 -1 -2 -2 -1 0 1 1 1 0 1 0 -1 -2 -2 -1 -0 -1 0 1 1 -0 -0 0 0 0 0 0 0 1 2 2 1 1 1 0 0 0 0 -0 -0 -0 -0 -0 -0 -0 -0 -0 nan
nan 0 -0 -1 -1 -0 -0 -1 -1 -1 -1 -1 -1 -1 -1 -1 -1 -1 -1 -1 -1 -2 -2 -1 -1 -1 -1 -1 -2 -2 -1 1 1 1 0 1 1 -0 -1 -2 -1 -1 -0 -0 1 1 1 0 0 0 0 0 0 1 2 2 1 1 1 1 0 0 0 0 -0 -0 -0 -0 -0 -0 -0 -0 -0 nan
nan -0 -1 -1 -1 -0 -0 -0 -0 -1 -1 -1 -2 -2 -2 -2 -2 -2 -2 -2 -2 -2 -2 -2 -1 -1 -1 -1 -2 -2 -1 -0 0 0 0 1 1 0 -1 -2 -2 -1 -0 -0 0 1 1 1 0 0 1 1 1 0 1 2 2 1 1 1 0 0 -0 -0 -0 -0 -0 -0 -0 -0 -0 -0 -1 nan
nan -0 -1 -1 -1 -0 -0 -0 -0 -0 -1 -1 -1 -2 -2 -2 -2 -2 -2 -2 -2 -2 -2 -2 -2 -1 -1 -1 -1 -1 -2 -1 -1 -1 0 1 1 1 -0 -1 -2 -2 -1 -0 0 1 2 2 1 1 1 1 1 0 1 2 2 1 1 0 0 0 -0 -0 -0 -0 -0 -0 -0 -0 -0 -0 -0 nan
nan -0 -0 -1 -1 -0 -0 -1 -1 -1 -1 -1 -1 -2 -2 -2 -2 -2 -2 -2 -2 -2 -2 -2 -2 -2 -2 -1 -1 -1 -2 -1 -1 -1 -0 1 1 1 0 -0 -1 -2 -1 -0 -0 1 2 2 1 1 1 1 1 1 2 2 1 1 0 0 0 -0 -0 -0 -0 -0 -0 -0 -0 -0 -0 -0 -0 nan
nan -1 -1 -1 -1 0 -0 -1 -1 -1 0 0 -0 -1 -1 -1 -2 -2 -2 -2 -2 -2 -2 -2 -1 -2 -2 -2 -1 -1 -1 -1 -2 -1 0 1 1 1 0 -0 -1 -1 -0 1 -0 0 2 1 1 1 1 1 1 1 1 1 0 0 1 0 -0 -1 -1 -1 -1 -1 -0 -1 -1 -1 -1 -0 -0 nan
nan -1 -1 -1 -0 0 -0 -1 -1 -1 0 1 0 -1 -1 -1 -1 -2 -3 -3 -2 -1 -2 -3 -2 -2 -2 -2 -1 -1 -1 -1 -2 -1 0 0 1 1 0 0 -0 -1 -0 0 -0 -1 1 2 2 1 0 1 1 1 1 0 0 1 0 0 -1 -1 -1 -2 -2 -2 -1 -1 -1 -1 -1 -1 0 nan
nan -1 -1 -1 -0 -0 -0 -1 -1 -0 0 1 1 -0 -1 -0 -0 -1 -2 -3 -3 -2 -2 -2 -3 -3 -2 -1 -2 -1 -1 -1 -2 -1 -0 -0 0 1 0 0 1 0 -0 -1 -1 -0 1 3 2 1 1 1 1 1 1 1 1 -0 -1 -1 -1 -2 -2 -2 -3 -3 -1 -1 -1 -1 -1 -1 0 nan
nan -1 -1 -1 -0 -0 -0 -0 -0 0 1 1 0 0 0 -0 -0 -1 -1 -2 -2 -3 -3 -2 -3 -4 -3 -2 -2 -1 -1 -1 -1 -1 -1 -1 0 0 0 0 1 1 0 -0 -1 0 2 3 2 1 1 0 -0 0 0 -0 -1 -2 -3 -2 -1 -2 -2 -2 -2 -1 -0 -1 -0 -0 -1 -0 0 nan
nan -1 -2 -1 -0 0 0 0 0 1 2 2 1 -0 0 0 -0 -1 -1 -1 -1 -2 -3 -3 -3 -4 -4 -3 -2 -1 -1 -0 -0 -1 -1 -0 -0 0 0 0 1 0 0 1 0 1 2 2 2 1 -1 -2 -1 -0 -0 -1 -2 -3 -3 -2 -1 -1 -0 0 -0 -0 -0 -0 -0 -1 -1 -0 0 nan
nan -2 -2 -1 -1 -0 -0 0 0 0 1 2 1 1 1 0 0 0 -0 -0 -0 -1 -1 -2 -3 -3 -4 -4 -3 -2 -1 -0 -1 -1 -1 -0 -0 0 -0 0 1 1 0 1 0 0 0 0 1 2 -0 -2 -1 -1 -1 -1 -1 -2 -1 -1 0 0 0 0 0 -0 -0 -1 -1 -1 -1 -0 0 nan
nan -2 -2 -1 -1 -0 -0 -0 -0 -0 -0 0 1 1 2 1 1 1 0 -0 -0 -0 -1 -2 -2 -2 -4 -5 -4 -2 -1 -1 -1 -1 -0 -0 -0 0 -0 -0 1 1 0 0 -0 0 0 0 1 2 1 -1 -1 -1 -2 -2 -2 -2 -1 0 1 1 -0 -0 -0 -1 -1 -1 -1 -1 -0 -0 0 nan
nan -2 -1 -1 -1 -1 -1 -0 -0 -0 -1 -1 -0 1 2 1 0 0 0 1 0 0 -0 -1 -2 -3 -4 -4 -3 -3 -2 -1 -1 -1 -0 -0 0 -0 -0 0 1 0 0 0 -0 0 1 1 1 1 1 -0 -1 -2 -2 -2 -2 -1 -0 -0 0 0 0 -0 -0 -1 -1 -1 -1 -0 0 0 -0 nan
nan -1 -1 -1 -1 -1 -1 0 1 0 -1 -1 -1 1 2 1 -1 -2 -1 0 2 2 1 -0 -1 -2 -3 -3 -3 -3 -3 -2 -1 -0 -1 -0 0 0 0 0 0 0 1 1 0 1 1 1 1 1 0 -1 -2 -2 -2 -2 -1 -0 -0 -1 -0 0 0 -0 -0 -0 -0 -0 0 0 1 1 0 nan
nan -1 -0 -0 -1 -1 -0 1 2 1 0 -0 0 1 1 1 0 -1 -2 -2 0 2 1 0 -0 -1 -2 -3 -3 -4 -3 -2 -1 -1 -1 -0 0 0 -0 0 0 1 1 1 1 2 1 1 1 1 -0 -2 -2 -2 -1 -1 -0 -0 0 0 -0 -1 -1 -0 1 1 1 1 0 0 0 0 0 nan
nan -1 -1 -0 -1 -1 -1 1 2 1 1 1 0 1 1 1 1 1 -1 -1 -1 -0 1 1 -0 -1 -2 -2 -3 -4 -3 -2 -2 -1 -1 0 0 0 0 1 1 0 1 1 1 1 0 0 0 0 -0 -1 -2 -1 -0 -1 -1 -0 0 0 -0 -0 0 1 1 1 0 -0 -0 -0 -0 -0 -0 nan
nan -1 -1 -1 -1 -1 -0 0 0 0 2 2 0 -0 1 1 1 1 -1 -1 -1 -0 2 1 -1 -2 -2 -2 -3 -4 -5 -4 -2 -1 -1 0 0 1 1 1 0 0 1 1 1 0 0 1 0 -0 0 -0 -1 -1 -0 -0 -1 -1 -0 -0 0 1 1 0 -0 -1 -1 -1 -0 -0 -0 -0 -0 nan
nan -1 -1 -0 0 -0 -1 -1 -1 -1 1 3 2 1 0 1 1 1 0 -1 -2 -1 1 0 -2 -2 -1 -2 -3 -5 -7 -6 -2 -0 -1 -0 1 1 1 0 0 0 0 0 1 1 0 -0 -1 -0 0 -0 -1 -0 -0 -0 -0 -0 -0 -0 0 0 -0 -1 -1 -0 -0 -0 -0 -0 -0 -0 -0 nan
nan -1 -1 0 1 1 -1 -2 -1 -1 1 2 3 2 2 1 0 1 1 0 -1 -2 -1 -0 -1 -2 -2 -2 -3 -4 -6 -4 -0 0 -1 -1 1 1 0 0 0 -0 -0 0 1 1 -1 -1 -0 1 0 -0 -0 -0 -1 -0 -0 -0 -0 -0 -0 -0 -0 -0 -0 -0 -0 -0 -0 -0 -1 -1 -1 nan
nan -2 -2 -1 -0 0 0 -1 -1 -0 0 1 1 2 3 2 0 1 2 1 0 -1 -1 -1 -1 -2 -2 -2 -2 -4 -5 -3 -0 -0 -1 -1 1 1 0 0 0 -0 0 0 0 -1 -1 -1 1 1 0 -1 -1 -1 -1 -1 -0 -0 -0 -0 -0 -0 -0 -0 -0 -0 -0 -0 -0 -1 -1 -0 -0 nan
nan -3 -3 -2 -2 -2 -0 -0 -1 -0 0 0 -0 1 1 1 1 1 2 1 -0 -0 -1 -1 -1 -2 -2 -2 -2 -4 -5 -3 -1 -1 -2 -0 1 1 1 0 -0 -0 0 0 -0 -1 -0 0 1 1 -0 -1 -1 -1 -0 -0 -0 -0 -0 -0 -0 -0 -0 -0 -0 -0 -0 -0 -1 -0 -0 -0 -0 nan
nan -2 -2 -3 -3 -3 -1 -0 -0 -1 -0 1 1 0 0 1 1 1 1 1 0 0 -1 -1 -2 -3 -3 -3 -3 -4 -4 -2 -0 -2 -1 1 2 1 0 0 -0 -0 0 0 -0 -0 0 1 1 0 -0 -1 -1 -1 -0 0 -0 -1 -0 -0 -0 -0 -0 -0 -0 -0 -0 -0 -0 -0 -0 -0 -0 nan
nan -2 -2 -3 -3 -3 -2 -0 0 -0 -0 1 1 0 0 -0 -0 1 2 1 0 -0 -1 -2 -2 -3 -3 -3 -3 -3 -3 -1 -1 -2 -0 2 1 -0 0 0 -0 0 0 0 0 -0 0 0 0 -0 -0 -0 -1 -0 -0 -0 -1 -0 -0 -0 -0 -0 -0 -0 -0 -0 -0 -0 -0 -0 -0 -0 -0 nan
nan -2 -3 -3 -2 -2 -2 -1 -0 0 -0 0 1 1 0 -1 -0 1 2 0 -0 -1 -2 -2 -3 -3 -2 -2 -2 -2 -1 -1 -1 -0 1 1 -0 0 1 1 0 1 1 0 0 -0 -0 0 -0 -0 -0 -0 -0 -0 -0 -0 -0 -0 -0 -0 -0 -0 -0 -0 -0 0 0 0 0 0 -0 -0 -0 nan
nan -3 -3 -3 -2 -2 -1 -1 -0 -0 -0 0 0 0 0 -0 0 1 0 -0 -0 -1 -2 -2 -2 -2 -1 -1 -1 -0 0 0 0 1 1 1 1 1 1 1 1 1 0 -0 -0 -0 -0 0 -0 0 0 -0 -0 -0 -0 -0 0 -0 -0 -0 -0 -0 -0 -0 0 0 0 -0 -0 0 -0 -0 -0 nan
nan -2 -2 -2 -2 -1 -1 -1 -0 -0 -0 -0 0 0 -0 0 0 0 -0 -1 -0 -1 -2 -2 -2 -1 -0 -0 -0 0 1 1 1 1 1 1 1 1 0 0 1 0 -0 -0 -0 -0 0 0 0 0 -0 -0 -0 -0 0 0 0 -0 -0 -0 -0 -0 -0 -0 0 -0 -0 -0 -0 -0 -0 -0 -0 nan
nan -1 -1 -1 -1 -1 -1 -0 -0 -1 -0 -0 -0 0 0 0 -0 -0 -0 -0 -1 -1 -1 -1 -1 -0 -0 -0 0 1 0 0 0 0 1 1 0 0 0 0 0 -0 -0 -0 -0 0 0 1 0 -0 -0 -0 -0 -0 -0 -0 -0 -0 -0 -0 -0 -0 0 0 0 0 -0 0 0 -0 0 0 -0 nan
nan -1 -1 -0 -0 -0 -0 -0 -0 -1 -0 -0 -0 -0 0 0 0 -0 -0 -0 -0 -1 -1 -1 -1 -0 -0 0 0 0 0 -0 0 0 0 0 -0 0 0 0 0 0 -0 -0 0 0 0 0 -0 -0 -0 -0 -0 -0 -0 -1 -0 -0 -0 -0 -0 0 0 0 0 0 0 0 0 0 -0 0 0 nan
nan -1 -1 -0 0 0 0 0 -0 -0 -0 -0 -0 0 0 0 -0 -0 -0 -0 -0 -0 -0 -0 -0 0 0 0 0 0 0 0 0 0 -0 -0 -0 0 0 0 0 0 -0 -0 0 0 0 -0 -0 -0 -0 -0 -0 -0 -0 -0 -0 0 -0 -0 0 0 0 0 0 0 0 0 0 0 -0 0 0 nan
nan -1 -0 -0 -0 0 -0 -0 0 0 -0 -0 -0 -0 0 -0 -0 -0 -0 -0 -0 -0 -0 0 0 0 0 0 0 0 0 0 0 0 0 0 0 0 0 0 0 -0 -1 -0 0 0 -0 -0 -0 -0 -0 -0 -0 -0 -0 -0 -0 0 -0 0 0 0 0 0 0 0 0 0 0 0 0 0 0 nan
nan -1 -1 -0 0 0 -0 -0 -0 -0 -0 -0 -0 -0 -0 -0 -0 0 0 -0 -0 -0 -0 -0 -0 -0 -0 0 0 0 1 0 0 0 0 0 0 0 0 -0 -0 -1 -0 0 0 -0 -0 -0 -0 -0 -0 -0 -0 -0 -0 -0 -0 0 0 0 0 0 0 0 0 0 0 0 0 -0 0 0 0 nan
nan -1 -1 0 0 -0 -0 -0 -0 -0 -0 -0 -0 -0 -0 -0 -0 -0 -0 -0 -0 -0 -0 -0 -0 0 0 1 1 1 0 0 -0 0 0 0 0 0 -0 -0 -0 -0 -0 -0 -0 -0 -0 -0 -0 -0 -0 -1 -0 -0 -0 -0 -0 0 0 0 0 0 0 0 0 -0 -0 0 0 0 0 0 0 nan
nan -0 -0 0 -0 -1 -1 -0 0 0 -0 -0 -0 -0 -0 -0 -0 0 -0 -0 -0 -0 -0 -0 0 1 1 1 0 0 -0 -0 -0 0 -0 0 0 0 -0 -0 -0 -0 -0 -0 -0 -0 -0 -0 -0 -0 -0 -0 -0 -0 -0 -0 -0 0 0 0 0 0 0 0 0 0 0 0 0 0 0 0 0 nan
nan -1 -0 -0 -1 -1 -1 0 0 0 -0 -0 -0 -0 0 0 0 -0 -0 -0 0 0 0 0 0 0 0 0 0 -0 -0 -0 -0 -0 -0 -0 -0 -0 -0 -0 -0 -0 -0 -0 -0 -0 -0 -0 -0 -0 -0 -0 -0 -0 -0 -0 -0 0 0 0 0 0 0 -0 -0 -0 0 0 0 0 0 0 0 nan
nan -1 -1 -0 -0 0 0 0 0 -0 -0 -0 -0 -0 0 0 -0 -0 -0 -0 0 0 0 0 0 0 0 0 -0 -0 -0 -0 0 0 0 -0 -0 -0 -0 -0 -0 -0 -0 -0 -0 -0 -0 -0 -0 -0 -0 -0 -0 -1 -0 -0 -0 0 0 0 0 0 0 0 -0 -0 -0 -0 0 0 -0 -0 -0 nan
nan -1 -1 0 0 1 0 0 -0 0 0 -0 -0 -0 -0 -0 -0 -0 0 -0 -0 0 0 0 0 0 0 0 -0 -0 -0 -0 0 0 0 0 -0 -0 -0 -0 -0 -0 -0 -0 -0 0 0 -0 -0 -0 -0 -0 -0 -0 -0 -0 -0 0 0 0 0 0 0 0 0 -0 -0 -0 -0 -0 0 0 0 nan
nan -1 -0 -0 -0 -0 -0 -0 0 0 0 -0 -0 -0 -0 -0 -0 -0 -0 -0 -0 0 0 0 0 0 0 -0 -0 -0 -0 0 0 0 0 0 -0 -0 -0 -0 -0 -0 -0 -0 0 0 -0 -0 -0 -1 -1 -0 -0 -0 -0 0 0 0 0 0 0 0 0 0 0 0 0 0 0 -0 0 0 0 nan
nan -1 -1 -1 -1 -1 -1 -1 -0 -0 -0 -0 -0 -0 -0 -0 -0 -0 -0 -0 -0 -0 0 0 0 0 -0 -0 -0 -0 -0 0 0 0 0 0 -0 -0 -0 -0 -0 -0 -0 -0 -0 -0 -0 -0 -0 -1 -1 -0 -0 0 0 0 0 0 0 0 0 0 0 0 0 0 0 0 0 0 -0 0 -0 nan
nan -1 -1 -1 -1 -1 -1 -1 -1 -1 -1 -1 -0 -0 -0 -0 -0 -0 -0 -0 -0 -0 0 0 0 0 -0 -0 -0 -0 -0 -0 -0 -0 -0 -0 -0 -0 -0 -0 -0 -0 -0 -0 -0 -0 -0 -0 -0 -1 -0 -0 -0 0 0 0 0 0 -0 -0 0 0 0 0 0 0 0 0 0 0 0 -0 0 nan
nan -1 -1 -1 -1 -1 -1 -1 -1 -1 -1 -1 -1 -0 -0 -0 -0 -0 -0 -0 -0 -0 0 0 0 0 -0 -0 -0 -0 -1 -1 -1 -1 -0 -0 -0 -0 -0 -0 -0 -0 -0 -0 -0 -0 -0 0 -0 -1 -0 -0 -0 0 -0 0 -0 -0 -0 -0 -0 0 0 0 0 0 0 0 0 0 0 0 -0 nan
nan -0 -0 -0 -0 -0 -1 -1 -1 -1 -1 -1 -0 -0 -0 -0 -0 0 0 0 -0 -0 -0 -0 0 -0 -0 -0 -0 -0 -0 -1 -1 -1 -1 -1 -0 -0 -1 -1 -1 -0 -0 -0 -0 -0 0 -0 -1 -0 -0 -0 0 0 0 -0 -0 -0 0 -0 -0 -0 -0 0 0 0 0 0 0 0 0 0 -0 nan
nan nan nan nan nan nan nan nan nan nan nan nan nan nan nan nan nan nan nan nan nan nan nan nan nan nan nan nan nan nan nan nan nan nan nan nan nan nan nan nan nan nan nan nan nan nan nan nan nan nan nan nan nan nan nan nan nan nan nan nan nan nan nan nan nan nan nan nan nan nan nan nan nan nan
Wind_Speed
29 29 29 30 32 32 30 29 30 30 31 32 31 31 32 33 34 34 33 33 32 30 29 30 29 30 32 32 31 31 32 33 33 34 36 37 38 37 35 34 33 34 34 33 33 34 35 34 34 34 35 34 32 32 31 29 28 27 27 26 26 26 26 27 27 28 30 31 32 30 27 27 30 31
30 29 30 32 34 34 34 32 32 31 31 32 32 33 32 33 34 35 36 36 34 31 30 29 28 28 29 31 32 33 33 32 32 33 35 36 37 36 34 34 33 33 33 32 32 34 35 35 34 35 36 35 35 35 34 31 29 27 27 27 27 26 27 27 27 28 28 29 30 30 28 28 28 29
30 29 29 32 32 31 29 28 28 28 29 30 30 31 32 34 36 37 38 40 39 34 32 31 29 28 29 30 32 34 33 32 31 32 33 34 35 36 35 35 35 33 33 33 32 33 34 34 34 35 35 35 36 37 37 34 31 29 28 28 28 27 28 28 28 28 28 28 29 29 29 29 28 28
31 28 27 30 30 27 25 26 27 27 28 30 32 31 31 31 33 34 36 40 42 39 36 35 33 32 31 31 32 33 34 33 31 31 31 32 33 34 36 37 36 34 32 32 31 31 32 33 33 34 34 35 37 37 37 35 33 32 31 29 29 28 28 28 28 28 28 28 28 28 29 29 29 28
33 30 29 31 29 26 26 27 29 31 33 36 39 39 39 38 37 35 35 37 41 40 37 36 36 35 33 33 33 33 35 34 32 31 31 32 31 33 35 36 36 35 32 30 30 30 31 31 31 32 34 36 37 37 37 35 33 33 31 29 29 28 28 28 29 29 29 28 28 29 28 29 29 29
31 29 31 33 31 26 26 27 30 33 33 33 34 35 37 39 40 40 39 39 40 41 39 36 36 36 34 35 34 33 35 36 35 34 33 33 32 32 33 35 36 36 34 31 30 30 31 31 30 32 33 34 34 36 37 36 34 32 30 29 29 29 28 28 29 29 28 29 29 29 29 29 29 30
29 28 30 33 31 27 28 30 31 32 31 28 28 30 30 31 34 35 37 39 40 41 40 37 37 37 35 35 34 33 34 36 37 37 35 34 34 32 32 34 35 36 36 33 32 31 32 32 31 30 32 32 32 33 35 34 32 30 29 29 29 29 28 28 29 29 29 29 29 30 30 30 30 30
29 27 28 31 31 29 30 33 33 33 32 30 28 28 29 29 30 30 30 33 37 39 41 40 39 38 38 35 32 32 34 34 35 37 37 36 35 34 32 32 35 37 36 33 33 33 31 30 30 30 31 32 32 32 32 32 31 30 29 30 29 29 30 29 29 29 29 29 29 29 29 29 30 30
30 29 30 31 31 31 31 33 33 34 34 33 30 30 30 30 32 34 33 32 32 35 39 41 40 40 40 39 34 31 32 31 32 35 37 36 35 33 32 31 34 36 35 32 32 33 32 29 29 30 31 31 32 32 32 31 31 30 31 31 30 30 31 31 32 32 31 30 31 31 31 30 29 30
31 31 32 33 33 34 35 35 36 36 36 35 34 34 33 33 34 37 38 37 38 38 37 36 37 39 40 40 38 35 33 32 32 33 34 35 36 34 32 31 33 33 33 33 32 33 34 32 30 30 31 32 32 32 32 32 31 31 32 32 31 31 31 31 34 36 35 35 36 36 36 35 33 31
34 34 35 36 37 37 38 38 39 39 39 38 38 36 36 36 34 33 34 36 41 46 45 39 34 34 37 39 39 39 37 36 36 35 33 34 36 34 33 32 32 30 30 32 32 32 33 34 32 30 30 31 32 32 33 32 32 34 36 36 34 33 33 33 35 37 37 38 38 38 38 38 37 35
37 38 39 39 39 39 40 41 41 41 41 40 40 38 36 35 33 31 31 32 35 41 49 50 42 34 32 35 38 38 37 38 38 36 34 34 34 32 31 33 32 30 29 30 31 32 33 32 31 30 30 31 33 34 35 34 35 37 39 39 38 37 37 37 37 37 37 38 38 38 38 38 38 38
41 42 42 41 41 41 41 42 42 42 42 41 42 41 39 37 35 33 32 32 32 34 40 48 50 42 35 33 34 36 36 36 36 36 35 34 33 31 29 31 31 30 29 29 30 31 32 30 29 29 32 35 37 38 39 39 40 41 40 39 38 39 39 38 37 37 37 37 37 37 37 37 37 37
43 42 42 41 42 42 42 42 42 42 43 43 44 44 44 44 43 41 37 34 34 34 34 38 44 44 40 35 32 35 37 35 34 36 36 33 32 30 30 31 30 28 27 26 26 25 25 26 28 29 31 35 36 36 38 39 39 39 37 37 37 38 38 37 36 36 35 35 35 36 36 37 36 36
43 42 42 42 43 43 43 43 43 44 45 45 46 46 46 47 47 47 45 41 37 36 35 36 37 39 41 41 36 34 36 37 38 38 37 34 31 31 32 32 29 26 26 26 25 23 22 23 25 27 29 30 31 33 35 36 36 35 35 35 35 35 35 35 35 34 34 34 35 36 36 36 36 36
42 42 42 43 44 45 45 45 46 47 48 49 49 50 51 50 48 49 50 50 48 44 39 37 37 37 40 43 42 37 34 36 40 41 37 35 33 32 33 33 29 25 25 26 27 26 25 24 24 27 29 29 30 32 34 33 32 32 33 33 32 32 33 33 34 34 34 34 34 35 35 35 35 35
41 41 43 44 45 45 46 48 48 49 50 52 53 53 53 50 49 48 48 49 51 51 46 42 41 41 40 41 43 41 36 34 37 39 38 36 34 32 31 31 29 25 24 26 28 28 27 26 26 27 28 29 31 33 33 32 30 30 31 31 30 30 31 32 32 32 32 33 33 33 32 32 31 31
38 40 41 43 45 46 48 50 51 51 52 53 55 55 52 50 48 48 47 46 46 48 49 49 49 47 44 44 45 44 40 36 35 38 40 36 33 32 31 30 28 27 25 24 26 27 26 24 25 26 27 28 32 34 33 31 29 28 29 29 29 29 29 29 29 29 29 28 28 27 27 27 27 28
35 37 40 42 45 47 50 52 52 52 52 53 55 55 52 49 48 47 47 46 44 44 46 49 53 53 50 48 48 49 48 42 35 36 39 37 33 34 34 31 30 29 27 24 23 25 25 23 25 27 27 26 30 32 31 29 27 26 26 26 27 27 26 26 26 25 24 25 25 25 25 25 25 26
35 37 39 41 45 48 51 51 48 47 48 49 52 53 52 49 48 47 45 43 40 41 42 44 48 52 52 50 48 50 54 51 38 31 35 36 33 33 32 31 32 31 30 27 25 25 26 24 26 28 26 23 24 25 24 23 22 22 22 23 24 24 23 23 23 23 24 24 24 24 25 25 25 25
36 37 38 40 44 48 50 50 45 40 40 45 49 52 51 49 47 47 45 42 40 39 39 41 43 45 48 50 49 49 55 57 46 34 35 38 36 34 32 31 31 31 31 32 30 29 29 27 28 30 28 24 22 20 19 19 19 19 20 21 22 22 22 22 23 23 24 23 24 24 24 24 24 24
37 37 37 38 42 45 46 46 43 39 39 44 49 50 48 45 45 46 45 43 41 39 38 40 42 44 45 46 48 50 52 55 50 41 39 39 38 37 36 32 29 28 29 32 32 31 31 30 30 29 26 23 22 22 21 19 18 17 18 19 20 21 21 22 22 22 23 23 23 23 22 22 22 22
39 37 37 37 39 42 42 42 42 42 40 40 43 45 43 42 42 44 43 41 40 39 39 38 38 42 45 45 46 48 49 49 47 44 43 41 38 39 38 32 28 26 26 29 31 31 30 29 28 26 21 18 18 20 21 20 17 16 17 16 17 18 19 20 21 22 23 23 22 21 21 21 21 22
39 37 38 40 40 40 40 40 41 40 37 34 35 38 40 39 39 39 39 39 38 37 38 37 35 35 39 43 44 45 46 46 44 43 44 43 39 36 34 30 29 28 25 24 27 28 25 25 25 23 20 16 12 12 15 18 18 18 18 15 13 14 15 15 15 15 16 19 20 20 20 19 20 22
37 37 39 41 41 40 39 38 38 36 31 29 31 34 36 36 35 35 37 37 37 36 35 35 34 33 34 37 40 42 44 44 42 42 44 42 36 33 31 29 28 28 25 23 24 23 20 21 21 20 19 19 15 10 10 15 20 21 18 15 14 12 12 12 11 10 11 14 16 17 18 18 19 21
38 40 41 41 41 39 37 35 35 34 32 30 31 32 33 33 32 33 35 35 34 33 33 33 33 33 32 32 36 41 44 44 43 43 42 38 33 31 31 29 27 27 25 24 24 22 18 17 18 18 17 18 18 14 10 12 18 20 18 16 14 12 10 11 12 11 10 11 12 13 14 15 16 17
41 43 44 43 40 37 35 34 34 34 33 30 29 29 29 30 30 30 32 34 32 31 31 31 31 30 28 28 32 38 42 42 41 39 37 35 32 31 30 28 26 25 22 20 21 21 18 16 17 18 16 14 15 15 12 11 14 17 17 15 13 11 11 12 13 11 8 8 10 10 11 11 12 13
40 42 44 43 38 34 32 31 30 30 28 24 22 23 23 25 26 27 30 32 31 31 30 29 26 22 23 26 27 28 32 34 33 33 34 34 32 30 26 23 23 23 21 19 18 19 18 17 16 19 19 15 14 14 12 11 12 14 16 16 14 13 14 13 11 9 7 6 7 7 7 7 7 8
40 43 43 40 35 30 26 24 24 23 21 18 17 19 20 21 23 27 30 31 31 32 31 28 21 16 18 23 24 23 24 26 27 29 31 31 27 25 22 20 20 21 21 19 17 18 20 20 15 17 21 20 17 17 14 10 10 14 17 18 16 14 12 10 9 9 6 5 5 3 3 4 4 5
42 43 39 34 30 25 21 19 19 17 16 16 18 21 23 25 27 29 29 30 31 31 28 25 21 17 16 21 24 24 24 23 24 26 27 24 22 23 23 20 20 21 21 18 16 19 24 25 18 15 19 19 18 20 18 13 11 14 16 17 15 11 9 9 11 10 8 6 4 2 1 3 2 1
43 39 31 23 20 18 16 15 15 16 16 18 20 21 21 22 27 31 32 31 30 28 25 24 23 20 19 21 24 25 24 22 23 24 22 20 21 25 25 20 19 22 23 21 18 19 23 26 23 19 18 17 16 17 18 16 15 15 14 14 14 11 8 9 10 9 10 9 4 1 2 3 2 2
35 27 19 14 13 12 11 11 12 14 15 17 17 14 9 6 9 17 23 25 26 25 23 22 20 17 16 18 21 23 23 23 23 23 22 21 21 24 26 22 19 23 27 24 22 21 21 22 23 21 17 15 14 14 15 15 16 14 13 13 13 10 8 9 9 7 8 8 5 1 1 2 3 4
24 16 15 16 15 13 11 11 13 13 13 15 15 7 2 3 7 11 15 16 17 18 17 17 18 18 16 16 18 20 22 22 22 22 22 22 20 23 28 24 18 22 29 27 22 22 22 20 20 20 17 15 15 14 14 15 14 12 12 13 12 9 7 8 8 7 7 7 5 2 2 3 3 4
16 14 19 21 18 16 15 15 15 14 14 17 17 10 3 1 5 9 11 13 15 16 16 17 18 18 17 17 18 20 22 22 21 22 23 22 21 23 27 23 16 19 27 26 21 21 22 19 17 17 16 14 14 13 14 15 13 12 13 13 11 9 6 5 5 6 8 9 7 4 4 5 4 3
16 17 20 21 19 18 18 19 19 18 17 18 19 16 10 3 2 6 8 11 14 15 14 14 15 14 14 16 17 19 21 22 22 23 24 23 23 24 24 21 18 19 22 22 20 21 22 19 16 15 14 14 14 12 13 15 14 14 14 12 10 10 7 5 6 6 7 9 8 5 5 5 5 3
19 20 22 22 20 20 20 21 21 19 18 17 18 18 15 8 2 0 3 7 10 12 12 11 12 13 12 13 14 17 20 21 22 24 24 23 25 25 22 20 20 20 19 18 18 20 21 20 18 16 13 13 12 10 10 14 16 17 16 13 11 10 8 7 7 7 7 7 7 6 5 5 4 3
20 21 23 23 22 22 23 22 20 19 17 16 15 15 14 13 8 2 4 5 5 8 10 9 10 12 12 12 13 17 19 20 22 25 24 23 24 25 23 21 20 19 17 17 17 17 18 18 19 17 13 11 10 8 8 13 17 18 16 15 14 13 10 8 6 6 6 6 6 4 2 2 1 2
22 22 24 24 24 24 23 22 21 19 17 16 14 12 11 10 9 5 2 4 5 6 8 8 9 10 11 11 14 17 18 19 24 26 23 20 21 22 23 23 21 18 16 16 16 15 15 16 18 18 13 11 10 9 9 14 18 17 15 14 16 15 12 9 6 4 4 4 4 4 1 1 2 3
24 24 24 24 24 23 23 22 21 21 19 17 15 13 10 8 6 5 4 4 5 6 7 8 9 10 11 11 14 17 17 18 24 28 23 19 19 19 19 20 21 18 16 16 16 15 15 15 17 18 16 12 9 7 9 14 17 17 14 14 15 14 12 9 6 5 4 3 3 3 2 3 3 3
24 24 23 23 22 21 21 21 21 20 20 18 15 12 10 9 6 4 3 4 5 7 8 8 9 10 11 12 15 16 16 17 23 28 25 20 19 18 17 17 19 18 16 17 17 17 18 18 17 18 19 14 7 5 9 13 16 17 16 14 14 13 11 10 9 7 6 5 4 2 1 2 2 2
26 25 24 23 22 21 20 20 19 18 18 17 15 12 9 8 7 7 6 4 4 6 7 8 9 11 12 13 15 16 17 17 20 24 25 22 20 19 17 16 17 17 17 16 16 17 17 17 17 19 20 16 8 7 10 12 15 18 16 14 14 12 9 9 9 7 7 7 6 4 1 1 2 3
27 26 25 23 22 21 20 19 18 17 17 16 16 14 10 7 7 6 7 7 5 5 6 8 9 10 11 12 13 15 17 19 20 22 23 22 20 20 18 16 15 16 16 16 15 14 15 16 18 20 21 17 11 8 9 11 15 19 17 14 13 10 7 6 6 5 5 6 5 4 2 2 1 3
26 26 25 24 23 22 20 19 17 17 16 16 16 15 12 9 6 4 3 5 5 4 4 6 8 8 10 11 11 12 14 17 20 22 24 22 20 19 18 17 16 16 14 13 13 14 16 18 20 20 20 18 12 10 10 11 15 17 17 15 13 9 7 7 6 4 4 4 3 3 3 3 2 0
26 26 25 24 24 22 21 19 17 16 16 16 15 14 13 10 7 5 5 2 0 1 2 4 5 6 8 9 10 11 12 12 16 20 23 23 21 18 18 18 18 16 13 13 15 17 18 18 18 18 19 18 14 10 10 12 13 14 17 17 14 10 8 9 7 4 4 5 6 6 6 5 5 4
26 25 24 23 23 22 21 19 18 17 16 16 15 15 14 11 8 6 6 7 5 5 6 5 3 5 8 9 10 11 11 12 13 15 17 19 19 18 16 17 17 16 15 16 18 18 16 16 18 20 20 17 13 9 9 12 14 16 17 17 13 10 9 9 7 5 5 7 7 7 7 7 7 8
Wind_Direction
281 278 276 273 273 273 271 269 268 265 264 263 264 263 262 265 269 271 270 266 264 264 262 261 260 255 254 256 256 255 255 254 255 258 260 263 267 267 264 261 259 253 247 242 240 241 240 240 241 240 242 242 241 242 244 244 244 244 246 248 249 251 252 252 253 248 243 239 239 245 253 255 251 248
283 275 272 273 275 276 274 271 268 265 264 263 262 262 260 260 261 265 269 269 266 264 263 261 260 259 255 254 256 255 255 253 253 256 258 259 263 266 264 261 260 256 250 244 240 240 240 239 239 239 240 242 242 244 246 246 246 246 246 248 250 252 254 254 254 252 249 247 247 250 254 257 255 253
285 280 277 278 279 278 277 274 269 266 263 263 263 263 262 261 260 261 265 268 266 263 263 263 261 262 259 254 256 258 257 253 251 253 255 257 259 263 263 261 260 257 253 248 242 239 239 238 238 238 238 240 241 244 246 247 246 243 243 245 247 249 252 253 254 254 254 252 251 252 253 254 256 255
280 279 278 280 279 276 274 271 269 266 260 256 254 255 257 258 260 261 262 264 266 264 263 264 263 262 262 258 257 258 258 255 250 247 250 254 256 257 258 258 257 256 255 252 245 240 238 238 237 237 237 238 240 243 245 244 242 242 244 247 247 249 251 253 253 253 254 254 252 253 253 253 254 256
279 277 277 278 276 274 274 272 269 266 262 260 258 257 257 257 257 259 262 264 267 267 263 263 263 261 260 260 258 256 256 255 251 248 250 253 252 252 254 256 255 253 253 253 250 243 238 237 237 237 236 237 238 240 241 241 242 244 248 250 249 250 251 252 253 252 252 252 251 251 252 251 252 255
281 278 277 277 275 273 273 272 271 271 271 270 270 268 265 263 260 259 261 263 267 268 265 262 262 261 259 259 259 255 253 253 252 251 252 252 250 247 250 254 255 253 252 254 255 250 243 239 237 236 237 237 238 238 239 241 244 246 249 251 251 251 251 252 252 252 252 252 250 249 249 248 249 251
279 276 275 276 277 275 274 274 274 276 275 273 271 270 269 268 266 263 261 261 263 266 265 262 260 260 259 258 257 255 255 254 253 252 251 250 248 245 246 250 252 252 253 254 255 254 249 243 238 236 237 237 237 237 237 241 245 248 251 251 251 252 253 253 253 251 251 251 249 249 249 247 246 246
277 274 273 276 279 280 279 280 280 280 279 276 271 270 269 266 266 266 263 262 263 264 264 262 260 259 259 259 256 255 256 255 252 251 250 248 246 244 244 246 247 249 252 253 254 255 251 243 238 236 236 236 236 236 238 243 248 250 251 251 251 252 251 251 252 251 250 249 249 249 250 250 248 245
277 275 276 281 286 286 283 283 285 285 284 281 275 271 268 264 263 264 263 262 262 264 265 263 260 258 257 257 256 253 254 256 254 251 247 244 243 242 241 241 241 245 248 247 248 252 251 245 240 236 235 235 235 237 240 245 249 250 250 251 252 252 252 251 250 250 250 249 249 248 248 249 249 247
286 285 286 288 290 288 286 287 288 288 287 285 282 278 274 272 270 267 265 261 259 262 265 264 262 258 254 253 253 251 250 253 255 252 246 243 241 238 237 237 237 239 243 243 243 248 251 248 242 237 234 235 236 238 242 246 249 250 250 251 252 252 252 252 251 250 250 250 249 249 249 249 249 249
292 291 291 292 292 290 289 288 288 288 287 285 284 282 280 280 276 269 267 265 261 260 261 262 264 262 255 250 250 250 248 248 250 249 246 243 240 234 231 235 236 232 235 240 242 247 251 249 246 241 237 236 238 240 243 246 248 249 250 252 254 254 253 253 252 252 252 252 252 251 251 250 249 249
294 294 294 294 293 291 289 288 287 287 286 283 281 280 278 276 270 263 263 267 266 263 261 261 263 266 263 254 249 247 245 242 241 243 244 242 239 235 230 232 234 229 227 234 240 245 250 250 248 244 240 241 243 244 246 249 251 253 256 258 258 258 256 255 254 253 253 253 252 251 251 250 250 250
295 296 296 295 294 293 291 289 288 287 285 280 277 276 274 270 266 262 259 260 263 266 264 260 259 261 263 259 252 245 240 238 239 241 244 241 237 235 232 231 232 227 224 228 234 241 247 249 247 243 244 250 254 254 254 255 257 259 261 261 260 259 258 256 254 253 253 252 252 250 250 250 250 250
294 296 296 295 294 293 292 290 288 287 286 281 277 275 272 268 267 265 260 256 256 259 261 260 258 256 257 258 256 249 242 240 241 240 240 239 236 234 234 235 232 224 219 221 226 234 240 245 248 245 245 253 258 258 258 258 259 262 261 260 259 258 257 256 254 253 250 249 249 249 249 249 249 250
294 296 295 294 295 294 292 291 289 287 287 284 282 279 274 269 266 263 259 257 255 254 254 257 256 253 251 251 252 252 247 242 239 238 237 237 235 233 234 235 231 224 221 221 224 232 235 240 247 247 245 251 255 258 261 262 264 265 263 260 258 256 256 254 252 251 249 247 247 248 248 248 249 250
292 294 293 293 293 292 292 291 290 287 286 285 283 283 280 275 269 265 262 259 257 255 252 251 252 252 250 247 247 250 250 245 242 240 237 235 234 232 231 231 231 229 225 222 226 233 232 231 240 246 246 250 255 260 265 269 269 268 265 262 259 254 252 250 249 249 248 247 247 247 247 248 248 250
290 291 291 291 291 291 292 291 288 284 283 283 282 282 280 275 269 267 265 262 259 257 253 249 249 250 248 245 244 245 247 248 244 239 236 234 231 230 231 233 234 231 225 223 227 230 228 227 235 242 247 254 263 267 270 271 269 265 262 260 256 251 248 247 247 246 245 245 246 246 247 248 248 249
288 289 290 291 291 292 292 291 287 283 281 280 280 279 275 270 266 264 262 262 260 257 253 251 250 251 250 246 242 240 241 247 248 240 235 233 230 232 237 240 237 232 226 226 226 225 226 230 235 241 247 257 266 270 271 271 268 261 257 255 252 250 247 246 245 244 244 244 245 246 248 249 249 250
291 293 293 294 295 294 293 292 290 287 285 280 277 277 274 270 267 263 261 261 259 257 255 252 250 249 248 248 244 238 236 241 247 242 235 233 235 239 242 241 236 231 226 222 219 223 229 233 238 245 250 256 264 269 271 273 269 261 255 252 249 249 247 244 244 243 243 244 245 246 247 247 249 249
299 299 298 298 298 296 295 297 295 292 287 277 270 270 271 270 267 265 265 266 264 262 259 255 250 245 243 245 245 240 236 236 240 243 239 236 238 240 238 235 235 233 226 221 221 230 237 237 241 249 251 252 260 267 267 266 263 259 254 249 246 245 243 241 241 241 241 242 242 243 244 244 246 247
306 304 301 300 299 297 296 297 296 292 286 276 267 263 263 266 267 264 265 266 266 265 260 254 252 249 244 242 242 240 236 233 234 243 244 238 235 236 236 236 237 236 233 233 234 237 240 241 244 250 252 250 252 254 253 252 253 253 249 244 241 239 237 238 239 239 239 240 241 243 244 245 248 249
312 308 302 300 300 298 298 297 295 293 289 282 274 265 259 260 262 262 263 263 262 263 261 256 251 248 245 242 241 240 235 229 229 237 242 238 235 235 237 237 237 237 239 241 240 237 239 244 247 249 252 252 247 241 240 242 245 246 244 238 234 234 236 239 240 241 241 241 242 244 244 245 246 247
316 311 304 302 303 302 302 299 296 295 291 283 276 270 263 259 259 260 260 258 254 256 260 259 253 247 242 239 240 241 235 227 228 234 238 237 235 235 236 234 231 231 236 239 239 239 243 248 248 243 241 245 247 245 242 239 235 235 234 231 231 235 238 241 243 243 243 242 242 240 240 241 240 239
314 309 304 302 301 300 300 298 294 292 289 281 275 272 266 260 260 260 256 253 252 253 255 256 255 250 243 238 238 238 232 226 229 235 236 235 233 231 231 228 226 228 231 236 242 246 247 248 246 238 229 228 239 250 244 232 222 221 224 226 231 237 240 242 242 238 237 238 239 239 241 242 239 236
307 304 302 302 303 302 300 298 295 291 285 279 276 273 267 261 260 259 256 255 255 254 253 252 251 247 243 240 236 230 224 224 231 236 233 230 227 225 225 224 226 230 231 235 244 250 247 242 238 229 221 220 223 228 225 217 215 216 218 222 228 232 237 239 236 234 237 239 240 242 243 243 241 238
309 307 305 305 307 304 299 296 296 291 285 281 278 273 266 260 257 255 254 254 254 252 250 250 249 248 244 238 230 224 223 227 232 232 229 225 225 227 228 226 227 230 232 236 241 245 243 233 221 212 209 215 220 221 218 216 220 220 218 223 232 233 232 236 239 241 242 238 237 240 241 242 243 241
312 310 310 309 308 304 298 296 295 291 288 286 280 269 260 255 253 251 249 248 249 249 249 248 250 250 240 225 219 220 222 224 223 222 222 225 229 232 231 229 229 230 231 234 237 238 232 218 207 202 201 205 214 219 221 221 222 222 221 227 236 236 237 244 243 231 221 225 233 238 237 237 239 239
311 309 311 311 308 303 297 294 294 293 291 286 274 265 259 253 249 247 246 246 245 247 250 252 251 242 222 213 215 217 216 216 214 216 222 228 231 232 231 232 231 226 218 218 228 229 214 200 199 201 197 194 197 203 210 214 209 207 212 219 228 233 239 242 228 204 195 217 229 227 223 219 221 229
310 312 314 313 311 305 295 290 292 293 292 284 271 265 261 253 246 244 244 245 243 245 250 253 248 230 211 213 217 213 207 207 209 213 219 224 226 227 226 228 228 221 211 211 221 219 199 188 194 206 205 204 203 200 203 208 200 199 210 220 226 228 225 214 195 184 190 203 193 174 176 187 204 228
314 319 319 317 315 307 292 287 290 291 289 284 277 271 265 255 247 242 239 238 239 242 245 246 242 233 219 211 207 200 197 199 204 209 212 215 218 217 215 218 221 215 205 203 211 211 199 192 196 206 207 210 213 210 211 215 208 207 218 224 219 206 188 179 178 183 192 187 159 120 153 152 146 240
321 323 321 324 326 316 299 291 291 291 292 292 288 284 277 264 251 242 238 237 237 236 236 239 241 234 220 209 203 198 196 202 210 212 210 209 210 209 208 211 214 209 200 193 195 200 200 202 209 212 207 207 211 212 215 217 211 208 213 210 197 182 173 178 182 193 205 198 183 248 245 187 174 184
321 322 328 350 4 351 334 326 320 313 309 311 308 298 286 268 238 230 230 230 230 228 229 231 227 212 198 199 201 200 203 209 214 213 210 208 207 206 205 206 211 209 200 189 185 188 194 206 215 216 212 211 208 205 208 211 205 197 195 190 178 170 179 190 188 194 203 189 171 178 226 190 188 177
320 334 6 23 25 18 10 3 357 349 342 341 340 322 241 142 146 171 183 190 195 199 202 199 193 187 183 185 190 196 202 208 213 213 208 204 205 206 204 204 206 205 198 189 184 191 201 211 214 211 211 213 208 202 204 206 196 183 184 186 175 168 186 198 185 173 164 153 141 127 121 126 150 163
332 360 24 29 29 30 29 25 22 18 12 10 14 18 15 77 129 146 158 162 164 170 176 179 184 192 197 198 201 204 204 206 211 213 206 201 201 204 203 201 197 195 195 193 191 197 206 213 212 208 211 215 213 207 206 203 189 172 173 176 167 161 179 192 171 157 147 136 128 117 112 113 117 134
1 10 22 28 33 36 36 34 32 29 24 23 27 30 24 15 101 111 129 153 164 172 180 188 195 203 210 214 217 215 209 205 207 209 207 206 206 203 199 195 189 186 189 195 201 206 211 212 208 208 215 218 215 212 208 203 188 169 165 164 155 153 162 165 152 146 138 134 134 137 145 146 141 144
15 15 22 26 28 31 33 34 33 30 25 23 26 28 29 25 15 157 172 179 186 190 195 205 209 209 212 218 216 208 203 201 200 201 202 202 201 199 194 189 186 183 183 190 201 210 215 214 209 210 215 216 213 215 213 203 188 173 171 172 165 157 152 145 136 127 126 139 148 149 154 165 169 178
20 18 21 23 24 26 27 29 32 32 29 24 23 23 27 32 33 332 252 250 231 212 211 218 221 218 217 214 206 201 198 197 198 199 196 190 190 194 192 185 181 182 183 186 195 207 216 216 211 208 208 205 203 206 207 197 188 183 181 177 170 162 149 135 128 122 127 147 159 155 166 202 165 70
21 19 18 18 20 22 22 24 28 30 29 26 22 17 19 29 39 38 327 295 273 243 236 239 240 238 231 212 198 197 198 196 198 197 186 173 176 185 187 184 182 182 183 186 194 209 218 215 209 205 200 193 194 201 203 194 188 187 182 170 163 160 147 134 137 138 127 131 141 139 123 15 45 38
19 18 16 15 16 17 18 19 21 23 25 23 17 13 12 13 19 33 24 333 290 269 262 255 244 237 226 205 192 196 198 195 195 193 182 171 173 177 177 179 181 181 184 188 194 208 215 209 203 199 191 186 196 216 213 198 188 182 172 161 158 156 142 131 136 144 139 138 143 135 78 39 51 35
17 17 15 13 13 12 12 13 14 16 18 18 13 8 5 356 338 331 359 348 305 276 267 254 231 219 213 199 190 194 195 190 190 190 186 182 182 180 177 179 182 184 189 191 197 211 217 209 201 195 189 187 197 212 203 194 184 174 166 160 160 159 149 142 143 149 164 172 160 149 331 5 52 50
14 15 13 12 12 10 9 9 9 9 9 9 7 4 359 351 334 308 298 308 294 269 261 244 221 213 211 200 190 190 190 183 182 186 188 188 188 186 182 181 181 184 189 194 202 213 213 203 196 193 189 186 179 175 183 184 177 171 168 164 164 166 167 166 162 159 172 173 149 128 159 266 24 1
12 13 12 11 11 10 9 6 4 4 4 3 1 360 355 352 345 316 286 275 267 257 252 242 227 215 208 199 190 188 188 183 178 180 184 185 185 187 188 186 184 185 192 200 205 202 192 187 190 191 190 186 175 163 168 171 171 173 172 169 169 171 171 168 161 150 158 166 149 124 140 173 211 335
10 11 11 10 10 10 10 7 4 2 1 360 360 360 360 1 3 353 303 270 264 257 242 238 231 213 199 194 186 180 184 187 186 187 187 185 182 185 191 192 188 187 192 199 196 183 178 185 192 192 189 185 176 160 161 171 176 175 171 168 172 175 159 139 129 120 128 137 124 89 84 109 135 56
9 10 10 10 9 9 8 8 6 2 1 1 0 0 4 9 14 28 49 65 244 209 180 205 220 203 181 175 172 171 174 180 186 192 196 197 195 195 199 199 194 190 187 182 176 173 178 189 192 185 179 178 173 165 174 184 180 169 165 167 172 173 154 134 119 111 123 119 101 79 70 73 84 92
7 9 10 10 9 8 7 8 8 5 2 3 4 5 9 14 15 28 58 78 91 107 123 140 168 175 164 157 159 167 168 162 162 169 178 184 185 186 190 192 188 181 174 171 172 174 176 178 173 167 166 171 171 166 178 186 172 157 159 168 173 167 150 133 124 138 152 135 111 82 66 72 87 94
Height
1438 1437 1436 1435 1434 1433 1434 1434 1433 1433 1433 1432 1431 1430 1429 1427 1422 1418 1414 1411 1411 1412 1412 1412 1411 1412 1414 1413 1412 1412 1411 1411 1412 1411 1409 1408 1408 1409 1410 1412 1413 1414 1416 1418 1420 1422 1424 1426 1427 1428 1429 1431 1432 1433 1434 1435 1436 1437 1438 1440 1441 1442 1443 1444 1444 1445 1446 1447 1448 1449 1450 1451 1451 1452
1432 1431 1430 1429 1428 1428 1428 1427 1427 1427 1427 1426 1426 1425 1424 1423 1420 1416 1411 1406 1406 1408 1408 1407 1407 1408 1409 1409 1409 1408 1407 1407 1408 1407 1406 1405 1404 1405 1406 1406 1408 1409 1410 1412 1414 1416 1418 1420 1422 1423 1424 1425 1427 1428 1429 1431 1432 1433 1434 1435 1436 1437 1438 1438 1439 1440 1441 1442 1444 1445 1445 1446 1447 1447
1428 1426 1425 1424 1423 1423 1422 1422 1421 1422 1421 1421 1420 1419 1419 1418 1415 1414 1410 1402 1400 1404 1403 1402 1404 1404 1404 1405 1405 1404 1403 1403 1404 1403 1401 1401 1401 1401 1401 1401 1402 1403 1405 1406 1408 1410 1413 1415 1417 1418 1419 1420 1422 1423 1424 1426 1428 1428 1429 1430 1432 1433 1433 1434 1434 1435 1436 1437 1439 1440 1441 1441 1442 1443
1424 1422 1420 1418 1418 1418 1417 1416 1416 1415 1415 1414 1413 1412 1412 1412 1410 1410 1408 1399 1394 1398 1400 1399 1399 1399 1399 1399 1400 1399 1398 1398 1399 1398 1398 1398 1397 1397 1396 1396 1397 1398 1400 1401 1403 1405 1407 1410 1411 1413 1414 1415 1417 1418 1420 1421 1422 1423 1424 1425 1426 1427 1428 1429 1430 1430 1431 1432 1433 1435 1436 1437 1438 1438
1418 1417 1415 1413 1413 1413 1411 1410 1409 1408 1408 1407 1407 1407 1406 1405 1405 1405 1403 1398 1392 1392 1395 1395 1394 1395 1395 1393 1394 1395 1394 1394 1394 1394 1394 1394 1393 1392 1392 1391 1392 1393 1395 1396 1398 1399 1401 1404 1406 1407 1409 1410 1411 1413 1414 1416 1417 1418 1419 1420 1421 1422 1423 1424 1424 1425 1426 1427 1428 1429 1430 1432 1433 1434
1413 1412 1410 1408 1408 1408 1406 1404 1403 1402 1402 1402 1401 1401 1401 1399 1399 1400 1399 1396 1391 1388 1389 1391 1390 1389 1390 1388 1388 1390 1390 1389 1390 1390 1389 1389 1389 1388 1388 1387 1387 1387 1389 1391 1393 1394 1396 1398 1400 1402 1404 1405 1406 1408 1409 1411 1412 1413 1414 1414 1415 1416 1417 1418 1419 1420 1421 1422 1423 1424 1425 1427 1428 1429
1408 1407 1405 1403 1402 1402 1401 1399 1398 1397 1397 1397 1396 1395 1396 1395 1394 1394 1394 1392 1389 1385 1384 1386 1385 1384 1384 1384 1383 1384 1385 1385 1385 1385 1385 1385 1384 1384 1384 1383 1383 1382 1384 1386 1388 1389 1391 1392 1395 1397 1399 1400 1401 1402 1404 1405 1406 1407 1407 1408 1409 1410 1411 1412 1413 1414 1415 1417 1418 1419 1420 1421 1423 1424
1403 1402 1400 1398 1398 1397 1396 1394 1393 1392 1391 1391 1391 1390 1390 1390 1389 1388 1388 1387 1385 1382 1380 1379 1380 1379 1379 1379 1379 1379 1379 1380 1380 1380 1380 1380 1379 1379 1379 1380 1379 1378 1379 1380 1382 1384 1385 1387 1389 1392 1393 1395 1396 1397 1398 1399 1400 1400 1401 1402 1403 1403 1404 1405 1406 1408 1409 1411 1412 1413 1414 1416 1417 1418
1398 1397 1395 1394 1393 1393 1391 1389 1388 1387 1387 1386 1385 1384 1384 1384 1383 1382 1382 1381 1380 1378 1375 1373 1374 1374 1374 1374 1374 1374 1374 1375 1375 1375 1374 1374 1375 1375 1375 1375 1375 1374 1374 1375 1376 1378 1380 1382 1384 1386 1388 1389 1390 1391 1392 1393 1394 1394 1395 1395 1396 1397 1398 1399 1400 1401 1403 1404 1405 1406 1408 1409 1410 1412
1393 1392 1390 1389 1389 1387 1386 1384 1383 1382 1381 1380 1379 1379 1378 1377 1377 1375 1375 1375 1374 1372 1370 1368 1368 1368 1368 1368 1368 1369 1369 1370 1370 1370 1369 1369 1370 1369 1369 1371 1371 1370 1370 1370 1372 1373 1375 1376 1378 1380 1382 1384 1385 1386 1387 1387 1388 1389 1389 1389 1390 1391 1392 1393 1394 1395 1396 1397 1399 1400 1401 1402 1403 1405
1388 1387 1386 1384 1383 1382 1380 1379 1377 1376 1375 1374 1373 1372 1371 1371 1371 1369 1368 1369 1368 1366 1364 1363 1362 1362 1362 1362 1362 1363 1364 1365 1365 1366 1364 1363 1364 1364 1363 1366 1367 1366 1365 1366 1367 1368 1369 1371 1373 1375 1377 1379 1380 1381 1381 1382 1382 1383 1383 1384 1384 1385 1386 1387 1388 1389 1390 1391 1393 1394 1395 1396 1397 1398
1383 1382 1380 1379 1377 1376 1374 1373 1372 1371 1370 1369 1367 1367 1366 1365 1365 1364 1363 1362 1362 1361 1359 1357 1357 1357 1357 1356 1356 1357 1358 1358 1358 1360 1360 1359 1360 1360 1359 1361 1363 1362 1360 1361 1363 1364 1365 1366 1368 1370 1371 1372 1374 1375 1376 1376 1376 1376 1377 1378 1379 1380 1380 1381 1382 1383 1385 1386 1387 1388 1389 1390 1391 1392
1378 1376 1374 1372 1371 1369 1368 1367 1366 1365 1364 1363 1362 1361 1361 1360 1359 1358 1358 1357 1356 1355 1353 1352 1352 1352 1351 1351 1351 1351 1351 1351 1352 1355 1356 1355 1355 1356 1355 1356 1358 1357 1356 1356 1357 1359 1360 1361 1362 1364 1364 1365 1366 1368 1369 1369 1370 1371 1372 1373 1373 1374 1375 1376 1377 1378 1379 1380 1381 1382 1383 1385 1386 1387
1372 1371 1369 1366 1365 1363 1362 1361 1360 1359 1358 1358 1356 1355 1355 1354 1353 1352 1351 1350 1350 1349 1347 1346 1347 1346 1345 1346 1346 1345 1345 1346 1348 1350 1351 1351 1351 1353 1352 1352 1353 1353 1351 1351 1353 1354 1356 1357 1358 1359 1359 1359 1361 1362 1362 1363 1364 1365 1367 1368 1368 1368 1369 1370 1371 1372 1374 1375 1376 1377 1378 1379 1380 1381
1366 1365 1363 1360 1358 1357 1356 1355 1353 1352 1351 1350 1349 1348 1348 1347 1346 1345 1343 1342 1342 1342 1341 1340 1340 1340 1339 1340 1341 1340 1340 1342 1343 1344 1346 1347 1347 1348 1348 1348 1348 1348 1346 1347 1349 1351 1352 1353 1354 1354 1354 1355 1356 1356 1356 1357 1359 1360 1361 1362 1362 1363 1364 1365 1366 1367 1368 1369 1370 1371 1373 1374 1375 1376
1361 1359 1357 1354 1352 1350 1349 1348 1346 1344 1343 1342 1341 1339 1339 1339 1338 1337 1336 1334 1334 1334 1334 1333 1333 1333 1333 1334 1335 1335 1336 1337 1338 1339 1341 1342 1342 1344 1344 1344 1344 1344 1344 1344 1346 1347 1349 1350 1350 1349 1350 1351 1351 1351 1352 1353 1354 1355 1355 1356 1357 1358 1359 1360 1361 1362 1363 1364 1365 1366 1367 1368 1370 1371
1356 1354 1351 1349 1346 1344 1343 1341 1338 1336 1334 1332 1331 1330 1329 1329 1329 1328 1328 1328 1327 1327 1327 1326 1325 1325 1327 1328 1328 1330 1332 1333 1333 1334 1335 1336 1338 1339 1340 1340 1341 1341 1341 1341 1341 1343 1344 1345 1346 1345 1346 1347 1347 1347 1348 1349 1350 1350 1350 1351 1352 1353 1354 1355 1356 1357 1358 1359 1360 1361 1362 1363 1365 1366
1351 1349 1346 1343 1341 1338 1336 1334 1331 1329 1326 1324 1322 1320 1320 1319 1319 1319 1319 1320 1321 1321 1321 1319 1317 1318 1320 1321 1321 1324 1328 1328 1328 1329 1330 1332 1333 1335 1337 1338 1338 1338 1338 1337 1337 1338 1339 1341 1342 1341 1342 1343 1343 1343 1343 1344 1345 1345 1346 1346 1347 1348 1349 1350 1351 1352 1354 1355 1356 1357 1358 1359 1360 1361
1345 1343 1341 1338 1334 1332 1329 1327 1325 1321 1318 1316 1313 1311 1311 1311 1310 1311 1311 1311 1312 1312 1312 1311 1310 1311 1313 1313 1315 1318 1321 1322 1323 1325 1326 1328 1330 1332 1333 1334 1333 1333 1333 1333 1334 1334 1335 1337 1338 1337 1338 1339 1339 1339 1339 1339 1340 1341 1341 1342 1343 1344 1345 1346 1347 1349 1350 1352 1353 1354 1355 1356 1357 1358
1340 1337 1335 1332 1328 1325 1322 1319 1317 1314 1311 1308 1304 1302 1302 1302 1302 1302 1303 1304 1304 1304 1303 1302 1301 1303 1305 1307 1309 1311 1314 1316 1319 1321 1322 1324 1326 1327 1328 1328 1327 1328 1329 1330 1330 1331 1332 1334 1334 1333 1335 1336 1335 1335 1335 1335 1336 1337 1338 1338 1339 1340 1342 1343 1345 1346 1347 1349 1350 1351 1352 1352 1353 1354
1334 1332 1329 1326 1322 1319 1315 1312 1309 1307 1305 1301 1298 1295 1294 1295 1295 1295 1296 1297 1297 1297 1296 1295 1295 1295 1298 1300 1302 1304 1307 1310 1314 1317 1316 1317 1320 1322 1322 1322 1323 1324 1325 1326 1327 1328 1328 1329 1330 1330 1331 1332 1332 1333 1333 1333 1333 1334 1334 1335 1336 1338 1339 1341 1342 1343 1344 1345 1346 1347 1347 1348 1349 1350
1328 1325 1323 1321 1317 1313 1309 1305 1302 1300 1298 1295 1292 1290 1289 1288 1288 1288 1289 1290 1289 1289 1289 1289 1289 1289 1291 1293 1296 1297 1300 1304 1308 1311 1310 1312 1315 1316 1317 1318 1320 1321 1321 1321 1322 1324 1324 1326 1327 1327 1328 1328 1329 1329 1330 1330 1331 1331 1332 1333 1334 1335 1336 1338 1339 1340 1340 1341 1342 1343 1344 1345 1346 1347
1322 1319 1316 1314 1310 1306 1303 1299 1295 1293 1292 1289 1286 1285 1284 1283 1282 1282 1283 1283 1282 1283 1283 1282 1282 1282 1284 1287 1289 1290 1294 1297 1301 1304 1306 1308 1310 1310 1312 1315 1316 1316 1316 1316 1318 1319 1320 1322 1323 1324 1325 1326 1325 1325 1326 1327 1328 1329 1330 1330 1331 1332 1333 1335 1335 1336 1336 1337 1338 1339 1341 1342 1343 1343
1317 1314 1311 1308 1305 1302 1298 1294 1289 1287 1285 1283 1281 1280 1278 1278 1277 1277 1278 1277 1277 1277 1277 1276 1277 1277 1278 1281 1282 1284 1288 1291 1295 1298 1300 1302 1304 1305 1308 1310 1311 1311 1312 1313 1314 1316 1317 1318 1319 1320 1322 1323 1323 1323 1323 1324 1326 1327 1328 1328 1329 1330 1331 1332 1332 1332 1333 1334 1335 1336 1337 1338 1339 1339
1313 1309 1306 1303 1299 1296 1292 1288 1284 1280 1278 1277 1276 1275 1272 1272 1272 1273 1272 1272 1272 1273 1272 1272 1273 1273 1274 1276 1277 1279 1283 1286 1289 1293 1295 1296 1299 1302 1304 1306 1307 1308 1309 1311 1311 1313 1314 1315 1315 1317 1318 1319 1320 1321 1321 1322 1324 1325 1326 1327 1328 1328 1329 1330 1330 1330 1331 1331 1332 1333 1333 1334 1335 1335
1308 1304 1300 1296 1292 1289 1285 1281 1278 1275 1273 1272 1270 1269 1267 1266 1267 1267 1267 1268 1268 1269 1268 1268 1269 1269 1269 1271 1273 1275 1278 1282 1285 1288 1290 1292 1295 1298 1300 1302 1303 1304 1306 1308 1309 1310 1311 1312 1312 1314 1315 1316 1317 1319 1320 1321 1322 1323 1324 1326 1326 1327 1327 1328 1328 1328 1329 1329 1330 1330 1331 1331 1331 1332
1302 1298 1294 1289 1286 1282 1279 1276 1273 1270 1268 1266 1264 1262 1261 1261 1262 1263 1265 1265 1266 1265 1265 1265 1265 1264 1265 1267 1269 1272 1274 1277 1280 1284 1287 1290 1293 1295 1297 1299 1300 1302 1304 1305 1306 1307 1309 1310 1310 1311 1313 1314 1316 1317 1319 1320 1320 1321 1323 1324 1324 1325 1326 1326 1326 1327 1327 1328 1328 1328 1328 1328 1328 1329
1297 1293 1288 1284 1280 1276 1273 1270 1268 1265 1263 1261 1259 1258 1258 1258 1259 1261 1262 1262 1263 1262 1262 1262 1262 1262 1262 1265 1267 1269 1272 1274 1278 1281 1284 1287 1289 1292 1294 1296 1298 1299 1301 1302 1303 1304 1306 1307 1308 1309 1310 1312 1313 1315 1317 1318 1319 1320 1321 1322 1323 1323 1324 1324 1324 1325 1326 1326 1326 1326 1325 1325 1326 1326
1293 1288 1283 1278 1274 1270 1268 1266 1264 1262 1260 1258 1257 1256 1256 1256 1256 1257 1258 1258 1259 1259 1259 1259 1260 1260 1261 1263 1265 1268 1270 1273 1276 1279 1281 1284 1287 1290 1292 1294 1295 1296 1298 1300 1301 1302 1303 1305 1306 1307 1308 1310 1312 1313 1315 1316 1317 1318 1319 1320 1321 1322 1322 1322 1323 1324 1324 1324 1324 1324 1324 1324 1324 1324
1288 1283 1278 1273 1269 1265 1264 1262 1261 1259 1258 1256 1255 1253 1252 1252 1252 1252 1253 1254 1255 1256 1257 1258 1259 1260 1261 1262 1265 1267 1269 1271 1274 1276 1279 1282 1285 1287 1289 1291 1292 1294 1296 1298 1299 1300 1301 1302 1303 1304 1306 1308 1310 1312 1313 1314 1315 1316 1317 1318 1319 1320 1320 1321 1322 1322 1323 1323 1323 1323 1322 1322 1322 1322
1283 1278 1274 1270 1266 1263 1261 1260 1259 1257 1256 1254 1251 1249 1247 1245 1244 1245 1247 1250 1251 1253 1255 1256 1257 1259 1260 1262 1264 1266 1268 1270 1272 1275 1278 1280 1283 1285 1287 1289 1290 1291 1293 1295 1297 1298 1299 1300 1301 1303 1305 1307 1308 1310 1311 1312 1313 1314 1315 1316 1317 1318 1319 1319 1320 1321 1321 1321 1322 1322 1321 1321 1321 1321
1282 1278 1273 1269 1265 1263 1261 1259 1258 1256 1254 1251 1249 1246 1244 1241 1240 1241 1244 1247 1249 1251 1253 1255 1257 1259 1260 1261 1263 1265 1267 1269 1271 1273 1276 1279 1281 1283 1285 1287 1288 1289 1291 1293 1295 1296 1297 1299 1300 1302 1304 1306 1307 1308 1310 1311 1312 1313 1314 1315 1316 1317 1317 1318 1319 1319 1319 1320 1320 1321 1320 1320 1319 1319
1282 1278 1272 1267 1264 1262 1260 1258 1256 1254 1252 1250 1248 1246 1245 1243 1242 1242 1243 1246 1248 1251 1253 1254 1256 1258 1259 1260 1262 1264 1266 1269 1270 1272 1274 1277 1279 1281 1283 1285 1286 1287 1288 1291 1292 1294 1296 1297 1299 1301 1303 1304 1306 1307 1308 1309 1310 1311 1313 1314 1315 1315 1316 1317 1317 1318 1318 1318 1319 1319 1319 1318 1318 1318
1281 1277 1272 1268 1265 1262 1260 1258 1256 1254 1252 1250 1248 1247 1246 1246 1245 1245 1246 1247 1249 1251 1253 1254 1256 1257 1259 1260 1262 1263 1265 1268 1270 1271 1273 1275 1277 1279 1281 1283 1285 1286 1287 1289 1291 1292 1294 1296 1298 1300 1302 1303 1304 1305 1306 1307 1309 1310 1311 1313 1314 1314 1315 1316 1316 1316 1317 1317 1317 1318 1317 1317 1318 1318
1281 1277 1272 1269 1266 1264 1261 1259 1257 1255 1253 1251 1249 1248 1248 1248 1248 1248 1248 1249 1250 1252 1253 1254 1256 1257 1258 1260 1261 1262 1264 1267 1269 1270 1271 1273 1275 1277 1279 1281 1283 1284 1286 1288 1290 1291 1293 1295 1297 1299 1301 1302 1303 1304 1305 1306 1308 1309 1311 1312 1313 1314 1315 1315 1316 1316 1316 1315 1316 1316 1317 1317 1317 1317
1281 1277 1273 1270 1268 1265 1262 1260 1258 1256 1254 1252 1251 1250 1250 1250 1250 1251 1251 1251 1252 1253 1254 1255 1256 1257 1258 1259 1260 1261 1263 1265 1267 1268 1269 1271 1273 1276 1278 1280 1282 1283 1285 1287 1289 1290 1292 1294 1296 1298 1300 1301 1302 1303 1304 1305 1307 1308 1309 1311 1312 1313 1314 1315 1315 1315 1315 1315 1315 1316 1316 1316 1316 1317
1280 1278 1274 1272 1269 1267 1264 1262 1260 1258 1256 1255 1253 1252 1252 1251 1252 1252 1253 1253 1253 1253 1254 1255 1255 1256 1257 1258 1259 1260 1262 1263 1265 1266 1268 1270 1271 1274 1277 1279 1281 1282 1284 1286 1288 1288 1290 1293 1295 1297 1299 1300 1301 1302 1303 1304 1306 1307 1308 1310 1311 1313 1313 1314 1314 1314 1314 1315 1316 1316 1316 1316 1316 1316
1280 1277 1275 1273 1270 1268 1266 1264 1262 1260 1258 1257 1255 1254 1253 1252 1252 1253 1253 1254 1254 1254 1254 1255 1255 1255 1256 1257 1258 1259 1261 1262 1263 1265 1267 1269 1270 1273 1275 1277 1279 1281 1283 1285 1287 1287 1289 1291 1293 1295 1297 1299 1300 1301 1302 1302 1304 1306 1308 1309 1310 1311 1312 1313 1314 1314 1314 1315 1316 1316 1316 1316 1316 1316
1280 1277 1275 1272 1270 1268 1266 1264 1263 1261 1259 1258 1256 1255 1254 1254 1253 1253 1253 1254 1254 1254 1254 1254 1254 1255 1255 1256 1257 1258 1259 1260 1261 1264 1266 1268 1270 1272 1274 1276 1278 1280 1282 1284 1285 1286 1288 1290 1292 1294 1296 1298 1299 1300 1300 1301 1303 1305 1307 1309 1310 1311 1311 1312 1313 1314 1315 1315 1316 1316 1316 1316 1316 1316
1280 1278 1275 1273 1270 1268 1267 1265 1263 1261 1260 1259 1257 1256 1256 1255 1254 1253 1253 1253 1254 1254 1254 1253 1254 1254 1254 1255 1256 1257 1258 1259 1261 1263 1265 1268 1270 1272 1274 1275 1277 1279 1281 1283 1284 1285 1287 1289 1291 1293 1295 1297 1298 1299 1299 1300 1302 1305 1307 1309 1310 1311 1311 1312 1313 1314 1315 1315 1315 1315 1316 1316 1316 1316
1281 1279 1276 1274 1272 1270 1268 1266 1264 1263 1261 1260 1259 1258 1257 1256 1255 1254 1253 1253 1253 1253 1253 1253 1253 1253 1254 1254 1255 1256 1258 1259 1260 1262 1265 1267 1270 1271 1273 1275 1277 1278 1280 1281 1282 1284 1285 1287 1290 1292 1294 1296 1298 1298 1299 1300 1302 1304 1306 1308 1310 1311 1312 1312 1313 1313 1314 1314 1315 1315 1315 1316 1316 1316
1283 1280 1278 1276 1273 1271 1269 1268 1266 1264 1263 1261 1260 1258 1257 1256 1255 1254 1253 1253 1252 1252 1253 1253 1253 1253 1253 1254 1255 1256 1257 1258 1260 1261 1264 1266 1269 1271 1273 1274 1276 1277 1279 1280 1281 1283 1285 1287 1289 1291 1293 1296 1297 1298 1299 1300 1302 1304 1306 1308 1309 1311 1312 1313 1313 1314 1314 1314 1315 1315 1315 1316 1316 1315
1284 1282 1279 1277 1275 1273 1271 1269 1267 1265 1263 1262 1260 1259 1257 1255 1254 1253 1253 1252 1252 1252 1252 1253 1253 1253 1253 1254 1254 1256 1256 1257 1259 1261 1263 1266 1268 1270 1272 1273 1275 1276 1278 1279 1280 1282 1284 1286 1288 1290 1293 1295 1297 1299 1300 1300 1301 1303 1305 1307 1309 1310 1312 1313 1314 1314 1314 1314 1315 1315 1315 1315 1315 1315
1286 1283 1280 1278 1276 1274 1271 1269 1268 1266 1264 1262 1261 1259 1257 1256 1255 1254 1253 1252 1252 1252 1252 1252 1253 1253 1253 1254 1255 1256 1256 1257 1258 1260 1262 1265 1267 1269 1271 1272 1274 1276 1277 1278 1280 1282 1283 1285 1287 1290 1293 1295 1297 1298 1299 1300 1301 1303 1305 1307 1309 1310 1312 1313 1314 1314 1314 1314 1315 1315 1315 1315 1315 1315
1287 1284 1282 1279 1277 1275 1272 1270 1268 1266 1265 1263 1261 1260 1258 1256 1255 1254 1253 1252 1252 1252 1252 1252 1253 1254 1254 1255 1255 1256 1257 1258 1259 1260 1262 1264 1266 1269 1270 1272 1273 1275 1277 1278 1279 1281 1283 1285 1287 1290 1293 1296 1297 1298 1299 1300 1302 1304 1306 1308 1309 1310 1312 1313 1314 1314 1314 1314 1315 1315 1316 1316 1316 1316